Chillicothe, MO

8:36 PM CST on December 08, 2019 (GMT -0600)
Chillicothe

Weather History for KCDJ - October, 2019

Change the Weather History Date:

Saturday, October 12, 2019

  Actual Average (WUND) Record (WUND)
Temperature  
Mean Temperature 47 °F -  
Max Temperature 66 °F - - (-1)
Min Temperature 30 °F - - (-1)
Degree Days  
Heating Degree Days 18    
Moisture  
Dew Point 32 °F    
Average Humidity 60    
Maximum Humidity 92    
Minimum Humidity 28    
Precipitation  
Precipitation 0.00 in - - ()
Sea Level Pressure  
Sea Level Pressure 30.04 in    
Wind  
Wind Speed 4 mph (SSW)    
Max Wind Speed 15 mph    
Max Gust Speed 31 mph    
Averages and records for this station are not official NWS values.
T = Trace of Precipitation, MM = Missing Value Source: NWS Daily Summary

Daily Weather History Graph

Daily Weather History Graph

Search for Another Location

Airport or City:

Astronomy

Oct. 12, 2019 Rise Set
Actual Time 7:21 AM CDT 6:39 PM CDT
Civil Twilight 6:54 AM CDT 7:06 PM CDT
Nautical Twilight 6:22 AM CDT 7:38 PM CDT
Astronomical Twilight 5:51 AM CDT 8:09 PM CDT
Moon 6:35 PM CDT (10/12) 5:59 AM CDT (10/12)
Length of Visible Light 12h 12m
Length of Day
11h 18m
Waxing Gibbous, 99% of the Moon is Illuminated
Oct 12
Waxing Gibbous
Oct 13
Full
Oct 21
Last Quarter
Oct 27
New
Nov 4
First Quarter

Hourly Weather History & Observations

Time (CDT) Temp. Windchill Dew Point Humidity Pressure Visibility Wind Dir Wind Speed Gust Speed Precip Events Conditions
12:52 AM 35.1 °F - 28.9 °F 78% 30.20 in - Calm Calm - N/A   Unknown
1:52 AM 35.1 °F - 28.9 °F 78% 30.19 in - Calm Calm - N/A   Unknown
2:52 AM 34.0 °F 31.0 °F 28.9 °F 82% 30.18 in - SSW 3.5 mph - N/A   Unknown
3:52 AM 33.1 °F 28.7 °F 28.9 °F 85% 30.17 in - South 4.6 mph - N/A   Unknown
4:52 AM 32.0 °F - 28.0 °F 85% 30.16 in - Calm Calm - N/A   Unknown
5:52 AM 30.9 °F 27.5 °F 28.9 °F 92% 30.16 in - South 3.5 mph - N/A   Unknown
6:52 AM 32.0 °F 28.7 °F 28.9 °F 88% 30.15 in - SSW 3.5 mph - N/A   Unknown
7:52 AM 33.1 °F 30.0 °F 28.0 °F 82% 30.15 in - SSW 3.5 mph - N/A   Unknown
8:52 AM 37.9 °F 33.5 °F 30.9 °F 76% 30.15 in - South 5.8 mph - N/A   Unknown
9:52 AM 45.0 °F 41.2 °F 30.9 °F 58% 30.12 in - SSW 6.9 mph - N/A   Unknown
10:52 AM 52.0 °F - 30.0 °F 43% 30.09 in - SW 8.1 mph 20.7 mph N/A   Unknown
11:52 AM 57.0 °F - 30.0 °F 36% 30.03 in - SSW 15.0 mph 25.3 mph N/A   Unknown
12:52 PM 60.1 °F - 28.9 °F 31% 29.99 in - SSW 10.4 mph 31.1 mph N/A   Unknown
1:52 PM 63.0 °F - 32.0 °F 31% 29.96 in - SW 10.4 mph 23.0 mph N/A   Unknown
2:52 PM 64.0 °F - 32.0 °F 30% 29.92 in - SSW 12.7 mph 23.0 mph N/A   Unknown
4:52 PM 64.9 °F - 30.9 °F 28% 29.89 in - WSW 11.5 mph 25.3 mph N/A   Unknown
5:52 PM 63.0 °F - 35.1 °F 35% 29.88 in - SSW 8.1 mph - N/A   Unknown
6:52 PM 60.1 °F - 37.0 °F 42% 29.88 in - SSW 8.1 mph - N/A   Unknown
7:52 PM 55.9 °F - 37.9 °F 51% 29.91 in - SW 3.5 mph - N/A   Unknown
8:52 PM 55.0 °F - 37.9 °F 53% 29.91 in - SSW 4.6 mph - N/A   Unknown
9:52 PM 52.0 °F - 37.9 °F 59% 29.90 in - South 4.6 mph - N/A   Unknown
11:52 PM 46.9 °F - 39.0 °F 74% 29.90 in - SSW 4.6 mph - N/A   Unknown